Precipitable_Water
0.46 0.47 0.46 0.47 0.47 0.49 0.48 0.47 0.49 0.49 0.49 0.51 0.54 0.59 0.65 0.73 0.83 1.00 1.16 1.24 1.30 1.44 1.46 1.47 1.49 1.37 1.42 1.45 1.46 1.43 1.35 1.27 1.23 1.20 1.17 1.15 1.14 1.15 1.14 1.15 1.16 1.19 1.25
0.53 0.53 0.54 0.55 0.57 0.59 0.59 0.58 0.56 0.54 0.53 0.53 0.51 0.52 0.51 0.54 0.60 0.65 0.73 0.85 1.03 1.15 1.32 1.41 1.48 1.49 1.49 1.53 1.56 1.54 1.45 1.39 1.31 1.28 1.26 1.24 1.19 1.18 1.17 1.15 1.16 1.18 1.20
0.51 0.53 0.55 0.56 0.58 0.61 0.62 0.61 0.61 0.61 0.58 0.59 0.56 0.57 0.56 0.54 0.52 0.50 0.51 0.55 0.60 0.75 0.92 1.06 1.26 1.41 1.54 1.55 1.58 1.63 1.62 1.53 1.44 1.35 1.32 1.34 1.29 1.27 1.26 1.28 1.25 1.22 1.22
0.50 0.49 0.47 0.47 0.51 0.52 0.53 0.52 0.52 0.50 0.51 0.51 0.50 0.51 0.53 0.57 0.59 0.62 0.63 0.60 0.54 0.53 0.57 0.72 0.85 1.11 1.35 1.56 1.57 1.60 1.65 1.66 1.58 1.49 1.44 1.47 1.43 1.41 1.42 1.43 1.39 1.37 1.36
0.55 0.55 0.56 0.60 0.63 0.62 0.61 0.60 0.60 0.61 0.60 0.61 0.60 0.57 0.55 0.54 0.55 0.57 0.56 0.58 0.63 0.66 0.65 0.59 0.59 0.70 1.07 1.28 1.51 1.55 1.60 1.64 1.64 1.65 1.55 1.59 1.52 1.49 1.47 1.45 1.42 1.41 1.38
0.61 0.62 0.63 0.64 0.67 0.65 0.64 0.66 0.64 0.63 0.54 0.50 0.47 0.46 0.46 0.51 0.54 0.56 0.58 0.62 0.66 0.67 0.74 0.77 0.74 0.64 0.65 0.96 1.22 1.38 1.49 1.57 1.82 1.67 1.71 1.68 1.60 1.64 1.51 1.52 1.53 1.40 1.37
0.65 0.65 0.66 0.67 0.67 0.65 0.65 0.63 0.54 0.49 0.47 0.51 0.44 0.40 0.44 0.48 0.51 0.53 0.56 0.61 0.65 0.69 0.72 0.78 0.81 0.83 0.81 0.70 0.89 1.21 1.34 1.40 1.60 1.64 1.68 1.71 1.60 1.60 1.56 1.55 1.51 1.49 1.52
0.67 0.68 0.67 0.65 0.64 0.60 0.57 0.55 0.53 0.48 0.48 0.53 0.43 0.41 0.31 0.40 0.49 0.47 0.56 0.57 0.64 0.71 0.79 0.84 0.92 0.95 0.94 0.88 0.77 0.89 1.20 1.45 1.48 1.48 1.67 1.66 1.70 1.67 1.62 1.57 1.49 1.53 1.53
0.67 0.68 0.68 0.65 0.63 0.61 0.57 0.57 0.55 0.52 0.45 0.52 0.54 0.45 0.35 0.33 0.40 0.50 0.54 0.59 0.63 0.71 0.81 0.84 0.91 0.94 0.99 1.01 0.97 0.92 0.96 1.13 1.30 1.40 1.44 1.62 1.61 1.67 1.67 1.58 1.51 1.51 1.56
0.67 0.69 0.68 0.66 0.65 0.64 0.62 0.62 0.62 0.56 0.53 0.47 0.54 0.57 0.57 0.53 0.41 0.37 0.53 0.61 0.67 0.68 0.78 0.84 0.90 0.90 0.93 1.01 1.05 1.04 1.07 1.06 1.16 1.28 1.48 1.49 1.50 1.60 1.58 1.64 1.61 1.61 1.58
0.68 0.69 0.67 0.66 0.65 0.66 0.66 0.64 0.61 0.56 0.56 0.53 0.53 0.53 0.53 0.54 0.56 0.49 0.42 0.51 0.64 0.71 0.78 0.83 0.85 0.85 0.89 0.96 1.09 1.10 1.13 1.14 1.21 1.29 1.36 1.41 1.37 1.49 1.59 1.63 1.58 1.56 1.51
0.68 0.69 0.69 0.67 0.69 0.67 0.66 0.64 0.64 0.59 0.57 0.58 0.58 0.58 0.54 0.50 0.49 0.51 0.50 0.55 0.58 0.66 0.76 0.83 0.83 0.86 0.93 0.94 1.09 1.16 1.16 1.23 1.21 1.26 1.35 1.36 1.45 1.52 1.50 1.52 1.51 1.43 1.39
0.64 0.65 0.67 0.65 0.65 0.65 0.68 0.65 0.64 0.63 0.59 0.59 0.58 0.57 0.61 0.60 0.62 0.60 0.58 0.57 0.57 0.66 0.71 0.79 0.81 0.90 0.92 1.01 1.01 1.16 1.20 1.24 1.27 1.25 1.27 1.31 1.35 1.38 1.37 1.36 1.30 1.23 1.19
0.65 0.67 0.65 0.64 0.62 0.63 0.65 0.64 0.63 0.64 0.63 0.60 0.59 0.60 0.61 0.64 0.65 0.64 0.61 0.59 0.54 0.58 0.64 0.68 0.84 0.93 0.99 0.99 1.06 1.08 1.06 1.13 1.24 1.28 1.28 1.26 1.23 1.22 1.22 1.23 1.20 1.13 1.07
0.62 0.63 0.63 0.61 0.59 0.58 0.59 0.60 0.58 0.59 0.62 0.60 0.58 0.59 0.59 0.62 0.67 0.69 0.69 0.69 0.61 0.49 0.52 0.68 0.73 0.89 0.95 0.98 0.96 0.99 0.98 0.97 0.98 1.00 1.06 1.09 1.11 1.11 1.10 1.07 1.06 1.00 0.91
0.54 0.55 0.57 0.56 0.54 0.54 0.53 0.54 0.53 0.57 0.58 0.60 0.59 0.57 0.58 0.60 0.63 0.67 0.69 0.70 0.71 0.64 0.53 0.69 0.75 0.79 0.81 0.87 0.91 0.93 0.96 0.97 0.97 0.94 0.91 0.94 0.95 0.92 0.88 0.85 0.81 0.75 0.70
0.48 0.51 0.53 0.51 0.50 0.47 0.49 0.49 0.49 0.50 0.52 0.54 0.57 0.56 0.56 0.59 0.58 0.61 0.64 0.67 0.67 0.68 0.60 0.67 0.74 0.77 0.77 0.76 0.78 0.81 0.79 0.77 0.80 0.82 0.82 0.80 0.76 0.72 0.70 0.68 0.66 0.64 0.64
0.49 0.47 0.49 0.48 0.46 0.45 0.45 0.44 0.43 0.46 0.46 0.46 0.50 0.52 0.53 0.56 0.56 0.58 0.58 0.58 0.60 0.65 0.64 0.60 0.68 0.70 0.69 0.70 0.68 0.65 0.64 0.64 0.63 0.63 0.62 0.62 0.63 0.63 0.63 0.64 0.64 0.63 0.63
0.50 0.47 0.44 0.42 0.42 0.42 0.41 0.42 0.42 0.42 0.41 0.43 0.46 0.47 0.50 0.52 0.52 0.54 0.56 0.56 0.57 0.59 0.59 0.56 0.55 0.64 0.63 0.65 0.64 0.66 0.64 0.63 0.64 0.65 0.67 0.67 0.67 0.66 0.64 0.62 0.61 0.59 0.58
0.48 0.44 0.42 0.41 0.40 0.39 0.40 0.39 0.38 0.37 0.38 0.39 0.42 0.45 0.45 0.45 0.46 0.47 0.50 0.52 0.55 0.55 0.57 0.56 0.54 0.56 0.59 0.65 0.63 0.55 0.50 0.56 0.57 0.63 0.65 0.66 0.69 0.68 0.67 0.66 0.65 0.64 0.61
0.42 0.42 0.38 0.38 0.37 0.36 0.37 0.36 0.36 0.34 0.34 0.34 0.36 0.39 0.41 0.44 0.44 0.44 0.45 0.47 0.49 0.48 0.50 0.49 0.51 0.52 0.51 0.49 0.43 0.49 0.46 0.46 0.48 0.55 0.56 0.55 0.51 0.50 0.50 0.50 0.51 0.46 0.40
0.36 0.36 0.34 0.33 0.32 0.33 0.34 0.35 0.36 0.33 0.32 0.30 0.28 0.32 0.38 0.39 0.41 0.42 0.44 0.45 0.47 0.44 0.42 0.41 0.41 0.39 0.44 0.47 0.48 0.45 0.41 0.37 0.33 0.46 0.36 0.30 0.31 0.31 0.35 0.36 0.37 0.40 0.38
0.34 0.31 0.30 0.30 0.29 0.30 0.31 0.32 0.34 0.33 0.31 0.30 0.29 0.28 0.28 0.36 0.38 0.38 0.39 0.42 0.43 0.42 0.42 0.38 0.33 0.35 0.38 0.44 0.44 0.41 0.39 0.35 0.29 0.29 0.25 0.21 0.28 0.26 0.31 0.30 0.30 0.34 0.34
0.33 0.30 0.29 0.29 0.28 0.28 0.30 0.31 0.32 0.32 0.30 0.30 0.30 0.29 0.28 0.29 0.34 0.36 0.34 0.35 0.37 0.37 0.36 0.37 0.36 0.38 0.41 0.42 0.41 0.39 0.36 0.33 0.29 0.28 0.28 0.20 0.26 0.24 0.26 0.28 0.32 0.33 0.32
0.31 0.31 0.31 0.30 0.29 0.28 0.31 0.31 0.32 0.31 0.29 0.29 0.30 0.31 0.30 0.29 0.31 0.36 0.33 0.30 0.30 0.30 0.37 0.38 0.38 0.38 0.39 0.40 0.38 0.36 0.29 0.26 0.22 0.25 0.30 0.25 0.24 0.24 0.24 0.28 0.34 0.36 0.32
0.31 0.32 0.31 0.31 0.31 0.31 0.33 0.33 0.33 0.32 0.30 0.29 0.30 0.31 0.32 0.32 0.32 0.35 0.35 0.32 0.28 0.27 0.29 0.32 0.36 0.38 0.39 0.38 0.39 0.36 0.32 0.27 0.26 0.24 0.29 0.26 0.25 0.24 0.21 0.30 0.34 0.35 0.33
Wind_Speed
26 26 27 27 28 29 29 30 30 31 32 32 33 34 34 34 35 35 35 35 35 35 35 35 34 35 34 33 32 31 29 28 27 26 25 24 22 21 19 18 17 17 16
28 28 29 29 30 30 31 31 31 32 32 32 32 33 34 34 35 35 36 36 37 37 37 38 38 37 37 36 35 34 33 31 30 28 27 26 25 24 22 21 20 19 18
30 30 30 30 30 30 30 30 30 30 31 32 32 33 34 35 35 36 37 38 38 39 40 40 40 40 40 40 39 38 36 34 33 32 30 28 27 26 25 23 22 21 20
32 31 31 30 30 29 29 29 29 30 31 31 32 33 33 33 33 34 34 36 37 38 40 42 42 42 42 43 43 42 40 38 37 35 33 32 30 29 27 25 24 23 22
32 31 30 29 29 28 27 27 27 28 28 28 28 27 27 28 28 28 30 31 34 36 39 42 44 44 44 43 43 44 43 41 42 38 36 34 33 32 30 27 26 25 24
30 30 29 28 27 26 26 25 25 25 24 24 25 24 25 23 23 24 25 28 31 33 37 39 42 44 46 46 45 44 46 44 34 38 37 35 35 33 30 28 27 26 25
28 27 25 23 22 22 21 20 20 21 22 22 22 22 20 21 19 22 25 27 30 34 37 37 38 40 43 46 47 45 43 44 42 42 39 34 34 33 30 29 28 27 28
24 22 20 19 19 18 18 18 18 19 19 19 19 19 18 17 18 25 24 28 31 34 34 32 32 34 37 40 44 46 45 42 45 44 34 34 31 33 31 30 29 28 27
21 20 19 17 17 17 17 17 17 17 17 17 18 17 16 17 22 21 25 29 31 33 30 27 29 29 30 33 37 41 44 44 42 41 37 35 33 34 31 31 30 30 29
20 18 17 16 16 16 16 15 15 15 16 16 17 16 18 20 21 21 24 28 30 32 27 26 26 26 26 26 30 33 37 40 40 40 38 33 33 35 33 32 31 28 25
18 17 16 16 15 14 14 14 14 15 15 16 15 16 18 19 19 22 24 26 29 30 26 23 25 25 23 21 21 25 29 33 34 34 33 33 31 24 29 26 24 22 22
17 16 15 14 14 13 13 14 14 14 15 15 15 16 17 17 19 21 23 26 28 27 26 21 22 18 15 14 11 14 20 23 28 30 29 27 27 22 18 19 20 21 21
16 14 13 13 13 12 13 13 14 14 15 15 15 16 17 18 19 21 22 24 25 25 24 20 18 14 11 8 10 7 9 16 19 23 26 25 25 24 21 20 21 22 23
14 13 12 12 12 12 13 13 13 14 15 15 15 15 16 18 19 20 21 22 23 21 21 20 17 14 11 8 5 6 6 8 12 15 18 21 23 24 24 23 22 23 24
14 13 12 12 12 13 13 13 14 14 15 15 15 16 16 18 19 19 20 21 20 19 19 19 16 14 12 9 5 5 7 9 12 13 15 18 20 22 23 24 26 26 26
13 13 12 12 12 13 13 14 14 14 15 16 16 16 17 17 18 19 19 20 20 18 17 17 15 14 12 10 7 6 6 6 8 13 16 18 20 22 24 26 27 27 28
14 14 13 13 13 13 14 14 15 15 16 16 16 16 17 17 18 19 19 20 19 19 17 15 14 14 12 11 9 8 8 10 10 12 15 17 20 22 23 24 25 26 26
16 15 15 15 14 14 14 15 15 16 17 17 17 17 17 18 18 19 19 20 20 19 18 16 15 14 13 12 10 9 9 10 11 12 14 16 17 19 21 22 23 24 25
18 17 17 17 16 16 16 16 16 17 17 18 18 18 19 19 19 19 20 20 20 20 19 17 16 15 15 13 12 11 10 10 10 11 12 13 14 16 17 18 19 19 20
20 20 19 19 19 18 18 18 18 18 18 19 19 19 19 19 20 20 20 21 21 20 19 18 17 17 16 15 14 14 14 14 13 13 13 13 14 14 15 16 17 18 19
22 22 22 21 21 21 20 20 20 20 20 21 21 21 21 21 21 21 21 21 21 20 20 19 18 17 16 16 16 16 16 16 16 16 17 17 18 18 19 19 20 21 22
24 24 24 23 23 23 23 23 23 23 23 23 23 23 23 23 23 23 23 22 22 22 21 20 19 19 18 18 18 18 18 18 18 18 18 20 20 21 21 22 23 23 24
26 26 26 26 26 26 26 26 26 25 26 25 26 26 26 25 25 25 25 24 24 24 23 22 21 21 20 19 19 20 19 20 20 20 20 21 21 22 23 24 25 25 25
28 28 28 28 28 28 29 29 29 28 28 28 28 28 28 28 27 27 27 27 26 25 24 24 23 23 22 22 21 21 21 21 22 22 21 22 22 23 24 24 25 25 26
29 30 30 31 31 31 31 31 31 31 31 31 31 31 31 31 30 29 29 28 28 27 26 26 25 24 24 23 23 23 23 23 23 22 22 23 23 24 25 25 25 26 27
31 31 32 33 33 33 34 34 34 34 34 34 34 34 34 33 33 32 31 30 29 29 28 27 26 26 25 25 25 25 25 24 24 24 23 23 24 24 25 26 26 28 29
Wind_Direction
300 300 299 297 296 294 293 292 291 290 289 289 288 287 285 284 282 281 280 278 277 275 273 271 269 266 265 264 262 261 261 259 258 257 257 258 259 259 261 263 266 266 265
301 299 299 298 296 295 294 293 292 291 290 289 288 287 286 285 283 281 280 278 276 275 274 271 269 267 264 263 261 259 259 257 256 256 256 256 256 257 258 260 262 264 263
300 299 298 297 297 296 295 295 294 293 292 291 290 288 287 286 284 282 281 279 277 275 273 272 270 266 263 262 259 258 257 255 255 254 254 254 255 255 255 258 259 261 262
300 299 298 297 297 297 297 296 296 295 295 294 292 290 289 287 286 285 283 282 280 278 275 272 269 267 264 260 259 256 255 254 253 252 252 253 254 253 255 255 258 260 262
299 298 297 297 297 297 297 298 298 299 299 298 297 296 295 292 290 289 288 287 285 283 280 275 270 266 263 260 257 256 253 253 253 250 251 251 252 251 251 253 257 260 262
299 298 297 296 297 298 299 299 300 301 302 302 303 300 300 298 296 297 297 297 295 293 289 281 273 267 263 260 257 255 253 253 249 253 248 251 249 248 247 251 256 259 261
301 300 300 299 299 301 302 304 305 307 307 308 306 307 305 305 302 306 307 305 303 300 295 288 279 272 266 260 256 254 252 250 247 253 244 251 250 244 248 251 255 259 262
302 301 300 300 301 302 304 306 310 310 309 314 313 312 312 311 312 314 312 312 310 308 301 292 286 279 271 263 256 251 249 249 248 248 250 249 249 250 254 252 255 259 263
300 299 299 299 301 303 304 307 308 313 314 317 321 317 317 313 317 315 319 319 318 318 307 296 293 288 281 267 258 251 247 246 249 247 247 246 253 252 253 252 254 259 261
296 295 296 298 300 302 304 306 310 312 314 318 323 322 319 317 317 319 323 325 327 325 315 304 300 291 286 276 262 253 248 244 244 243 244 248 254 251 255 251 254 255 256
290 291 293 295 298 300 303 306 308 311 315 318 322 324 325 324 323 323 327 331 334 336 328 317 309 297 287 280 269 254 246 241 238 238 243 245 252 250 246 247 243 245 252
285 287 289 293 296 299 303 306 309 311 315 316 320 322 325 327 328 330 331 334 335 340 342 333 331 319 292 281 281 260 244 238 235 235 237 240 240 244 243 240 245 250 255
280 282 286 290 294 299 303 307 310 313 316 315 317 321 325 326 327 329 333 338 341 344 349 348 346 344 336 283 265 282 252 234 233 232 233 233 234 241 246 251 256 257 260
275 277 283 289 294 299 304 306 308 312 315 316 316 319 323 327 330 330 333 337 342 347 354 358 358 357 349 342 269 260 260 238 229 228 228 231 236 243 251 256 259 262 264
270 274 280 288 295 301 304 306 308 311 313 314 315 316 320 325 330 334 335 334 337 342 347 355 360 0 357 354 335 294 264 257 239 237 236 237 243 247 253 258 263 268 269
268 273 280 288 295 300 305 307 308 310 312 313 313 314 317 321 325 329 334 336 336 335 335 341 346 350 348 343 326 302 282 271 251 247 246 247 250 253 258 263 266 269 270
268 271 278 286 294 300 304 308 309 310 312 314 312 312 314 318 321 324 327 332 333 335 332 333 337 342 342 337 323 310 289 272 267 263 258 257 257 259 262 264 266 268 271
267 270 275 282 290 296 302 305 307 310 311 313 311 310 311 313 315 318 321 324 326 328 326 323 324 326 329 331 328 316 299 286 277 274 269 265 263 263 265 266 267 269 270
267 270 274 279 285 291 296 300 304 307 310 312 312 310 310 311 313 315 317 319 321 322 320 317 313 313 312 313 313 313 310 302 293 284 278 272 269 268 267 268 270 271 273
264 270 272 276 281 286 290 295 299 302 306 309 310 309 308 308 309 311 313 315 316 318 317 315 312 308 306 304 303 301 297 295 290 285 280 278 273 271 270 270 272 274 276
264 268 271 274 279 282 286 289 292 296 300 304 305 307 307 306 306 307 308 311 313 314 315 314 311 309 307 304 301 299 295 293 289 284 279 276 275 273 273 273 275 276 278
265 267 269 273 277 280 282 285 288 291 295 298 300 302 303 304 304 304 304 305 307 308 309 309 306 304 302 300 300 297 295 291 287 283 280 278 276 273 273 274 275 276 278
264 266 268 272 275 278 280 282 285 287 291 293 296 298 299 299 299 300 300 299 301 302 303 303 301 300 298 296 296 295 294 291 287 284 284 280 278 276 275 276 276 276 278
264 266 269 271 274 277 279 280 282 285 287 290 293 295 296 296 296 296 297 296 296 297 299 299 298 296 295 294 293 293 292 290 288 284 283 280 281 279 279 278 277 277 279
267 267 269 271 273 276 277 279 281 283 285 288 289 291 293 293 292 292 293 293 293 293 294 295 295 294 292 292 292 291 291 290 288 285 283 282 282 281 282 280 279 279 281
269 270 271 272 273 276 277 278 279 281 283 286 288 289 289 289 289 288 289 289 290 291 291 291 291 291 291 290 290 290 289 287 286 285 281 282 282 284 284 282 281 282 284